Content
SEND FEEDBACK

Daily
Averages
Monthly
Summary
United States of America

YIGO, GUAM


Home > North America > United States > Guam
Elevation: 530 feet     Latitude: 13 32N     Longitude: 144 53E

WEATHER
 
SELECT A DAY
Number of Records: 213,760;   Date Range: 1/1/95 - 10/19/14
 
SHARE

PRINT THIS DATA

[ ← Previous Day ]
WEATHER ALMANAC - DECEMBER 31, 2012
[ Next Day → ]
[ °C ]   °F
Weather ElementAverageHighLow
Temperature82.5 °F87.1 °F (12:54 pm)80.1 °F (1:54 am)
Dewpoint75 °F75.9 °F (5:54 am)73 °F (1:54 am)
Humidity78.4 %87 % (5:54 am)67 % (11:54 am)
Barometer29.82 in29.87 in (8:54 am)29.78 in (2:54 am)
Wind Speed14 mph20.7 mph (3:54 pm)
Wind Gust25.3 mph (2:54 pm)
Weather ElementAverage
Visibility10 mi
Wind DirectionENE (75.8 °)

Weather ElementTotal
Precipitation---
Cooling Degree Days18.6 (Base 65)
Growing Degree Days33.6 (Base 50)
Averaged from 26 records on December 31, 2012
WEATHER CONDITIONS BREAKOUT
WIND DIRECTION BREAKOUT
WEATHER BY HOUR - DECEMBER 31, 2012
[ °C ]   °F
Local TimeTemperatureDewpointHumidityBarometerVisibilityWind DirectionWind SpeedGust SpeedPrecipitationEventsConditions
1:54 AM80.1 °F73.0 °F79 %29.80 in10.0 miEast (80°)11.5 mphScattered Clouds
2:54 AM80.1 °F73.9 °F81 %29.78 in10.0 miEast (80°)11.5 mphScattered Clouds
3:09 AM80.6 °F73.4 °F79 %29.81 in10.0 miEast (80°)12.7 mphMostly Cloudy
3:33 AM80.6 °F73.4 °F79 %29.81 in10.0 miEast (80°)11.5 mphScattered Clouds
3:54 AM81.0 °F73.9 °F79 %29.79 in10.0 miEast (80°)15.0 mphPartly Cloudy
4:54 AM80.1 °F75.0 °F85 %29.80 in10.0 miEast (80°)12.7 mphScattered Clouds
5:47 AM80.6 °F75.2 °F84 %29.83 in10.0 miENE (70°)11.5 mphMostly Cloudy
5:54 AM80.1 °F75.9 °F87 %29.81 in10.0 miEast (80°)12.7 mphScattered Clouds
6:54 AM81.0 °F75.0 °F82 %29.83 in10.0 miEast (80°)15.0 mphPartly Cloudy
7:54 AM81.0 °F75.0 °F82 %29.85 in10.0 miEast (80°)15.0 mphMostly Cloudy
8:54 AM82.9 °F75.0 °F77 %29.87 in10.0 miENE (70°)12.7 mphScattered Clouds
9:54 AM84.0 °F75.0 °F74 %29.87 in10.0 miEast (80°)16.1 mph23.0 mphMostly Cloudy
10:54 AM86.0 °F75.0 °F70 %29.86 in10.0 miEast (80°)18.4 mph24.2 mphScattered Clouds
11:54 AM86.0 °F73.9 °F67 %29.83 in10.0 miEast (80°)17.3 mph24.2 mphScattered Clouds
12:54 PM87.1 °F75.0 °F67 %29.81 in10.0 miEast (100°)15.0 mphScattered Clouds
1:54 PM86.0 °F75.0 °F70 %29.79 in10.0 miEast (90°)16.1 mph21.9 mphScattered Clouds
2:54 PM86.0 °F75.0 °F70 %29.78 in10.0 miENE (70°)18.4 mph25.3 mphScattered Clouds
3:54 PM84.9 °F75.0 °F72 %29.78 in10.0 miENE (70°)20.7 mph25.3 mphScattered Clouds
4:54 PM84.0 °F75.0 °F74 %29.79 in10.0 miENE (70°)15.0 mphScattered Clouds
5:54 PM82.9 °F75.9 °F79 %29.81 in10.0 miENE (60°)10.4 mphPartly Cloudy
6:54 PM82.0 °F75.9 °F82 %29.82 in10.0 miENE (60°)9.2 mphPartly Cloudy
7:54 PM82.0 °F75.9 °F82 %29.84 in10.0 miENE (70°)11.5 mphClear
8:54 PM82.0 °F75.9 °F82 %29.85 in10.0 miENE (70°)11.5 mphPartly Cloudy
9:54 PM81.0 °F75.9 °F85 %29.85 in10.0 miENE (70°)13.8 mphPartly Cloudy
10:54 PM81.0 °F75.9 °F85 %29.85 in10.0 miENE (70°)15.0 mphPartly Cloudy
11:54 PM81.0 °F75.9 °F85 %29.84 in10.0 miENE (70°)13.8 mphPartly Cloudy
Hourly data recorded from PGUM, located miles away from Yigo, Guam







STORIES FROM OUR PARTNERS